Regional Weather Roundup
Issued by NWS Jackson, KY

Home | Current Version | Previous Version | Graphics & Text | Print | Product List | Glossary On
Versions: 1 2 3 4 5 6 7 8 9 10 11 12 13 14 15 16 17 18 19 20 21 22 23 24 25 26 27 28 29 30 31 32 33 34 35 36 37 38 39 40 41 42 43 44 45 46 47 48 49 50
000
ASUS43 KJKL 271019
RWRJKL

EAST KENTUCKY HOURLY WEATHER ROUNDUP
NATIONAL WEATHER SERVICE JACKSON KY
500 AM EST TUE JAN 27 2015

NOTE: "FAIR" INDICATES FEW OR NO CLOUDS BELOW 12,000 FEET WITH
NO SIGNIFICANT WEATHER AND/OR OBSTRUCTIONS TO VISIBILITY.

* THESE REPORTS ARE NOT UNDER NWS QUALITY CONTROL AND MAY NOT
  REPORT WEATHER SUCH AS PRECIPITATION AND FOG.

KYZ079-080-083-085-087-088-110-112-115-119-120-271100
...EASTERN KENTUCKY...

CITY           SKY/WX    TMP DP  RH WIND       PRES   REMARKS
JACKSON        CLOUDY    26  22  84 CALM      29.86R
LONDON         LGT SNOW  30  25  81 NW5       29.86S WCI  25
SOMERSET*      LGT SNOW  28  28 100 NW3       29.90S
MONTICELLO*    LGT SNOW  30  29  96 CALM      29.91F FOG
MIDDLESBORO*   LGT SNOW  30  28  94 CALM      29.86S
HARLAN APT*    CLOUDY    28  27  93 CALM      29.83S
HAZARD APT*    CLOUDY    28  27  93 CALM      29.86
BLACK MTN*       N/A     18  18 100 N3          N/A
PIKEVILLE APT* CLOUDY    25  21  86 CALM      29.85S
BIG SANDY*     CLOUDY    26  22  87 CALM      29.87S
MOREHEAD APT*  CLOUDY    25  21  86 N3        29.92R
ASHLAND*       MOCLDY   N/A N/A N/A NE3       29.92R
$$

KYZ035-036-041-042-044-050-067-078-099-271100
...CENTRAL KENTUCKY...

CITY           SKY/WX    TMP DP  RH WIND       PRES   REMARKS
MT STERLING*   CLOUDY    28  27  93 NE3       29.90S
FLEMING/MASON* LGT SNOW  20  16  85 NE5       29.93R WCI  13
DANVILLE*      CLOUDY    28  28 100 NW3       29.90R
RICHMOND*      CLOUDY    27  27 100 CALM      29.88S
LEXINGTON      LGT SNOW  27  25  92 CALM      29.90R FOG
FRANKFORT      CLOUDY    28  25  88 CALM      29.89S FOG
$$

KYZ091>093-OHZ055-061-077-WVZ005-015-034-035-042-271100
...SOUTHERN OHIO/WEST VIRGINIA...

CITY           SKY/WX    TMP DP  RH WIND       PRES   REMARKS
COVINGTON      LGT SNOW  22  16  78 NE6       29.92R WCI  14
COLUMBUS       PTCLDY     7   4  87 N5        29.94R WCI  -2
DAYTON         MOCLDY    15  11  83 NE3       29.94R
WILMINGTON     MOCLDY    14   9  80 NE6       29.91S WCI   5
HUNTINGTON     CLOUDY    19  15  84 NE3       29.91R
CHARLESTON       N/A     19  14  81 CALM      29.89S
PINEVILLE*     CLOUDY    26  20  77 MISG      29.87S
BECKLEY        CLOUDY    19  12  74 NW10      29.77S WCI   7
BLUEFIELD      CLOUDY    21  13  71 NW10G21   29.74S WCI  10
$$

VAZ002-007-008-TNZ017-027-036-066-071-271100
...SOUTHWEST VIRGINIA/EAST TENNESSEE...

CITY           SKY/WX    TMP DP  RH WIND       PRES   REMARKS
WISE*          CLOUDY    25  23  93 N3        29.77S
ABINGDON*      CLOUDY    28  20  70 NW7       29.80S WCI  21
BRISTOL        CLOUDY    29  22  75 W6        29.83S WCI  23
KNOXVILLE      FRZ RAIN  31  29  92 SW6       29.88S FOG     WCI  25
OAK RIDGE      CLOUDY    32  30  92 VRB3      29.89S FOG
CROSSVILLE     CLOUDY    30  27  88 W6        29.84S FOG     WCI  24
NASHVILLE      CLOUDY    34  31  88 CALM      29.90S
$$

...KEY TO REMARKS...
VSB - VISIBILITY IN MILES
WCI - WIND CHILL INDEX
HX  - HEAT INDEX

$$


USA.gov is the U.S. government's official web portal to all federal, state and local government web resources and services.